Location: Eaton
(41.3139°N, 82.0207°W)
Time: 02:15:04
(UTC+00:00)

Cosmos 1842 Rocket - Pass Details

Date: 17 June 2021
Orbit: 606 x 633 km, 82.5° (Epoch: 02 August)

Event Time Altitude Azimuth Distance (km) Brightness Sun altitude
Rises 07:02:48 0° 353° (N) 2,873 8.0 -21.7°
Reaches altitude 10° 07:05:02 10° 355° (N) 1,966 7.0 -21.6°
Maximum altitude 07:09:23 77° 81° (E) 631 3.5 -21.2°
Enters shadow 07:10:29 49° 156° (SSE) 790 3.8 -21.2°
